Theta_e
274 274 273 273 273 273 273 273 273 274 274 274 273 273 272 273 273 272 273 272 272 272 271 272 271 271 271 272 272 274 274 274 274 274 275 275 275 275 276 275 274 272 273 276 279 279 279 280 280 278 279 278 279 279 279 280 280 281 281 282 282 282 283
273 273 273 272 272 272 273 272 272 273 273 273 272 272 272 271 272 271 271 271 270 270 270 270 270 270 270 270 270 271 271 273 273 273 273 273 274 273 274 274 272 272 272 271 275 275 277 277 278 275 278 277 277 277 278 278 279 280 281 281 281 282 282
272 272 272 272 272 272 272 272 272 272 272 272 271 271 271 271 271 271 270 270 270 269 269 269 269 268 269 269 269 270 271 271 271 273 272 271 272 271 272 272 272 271 270 270 271 274 273 274 275 275 275 276 277 277 277 277 278 279 280 280 281 281 281
271 271 271 271 271 272 272 272 272 272 272 271 271 271 271 271 270 270 270 270 269 269 268 268 268 268 267 268 267 268 269 271 271 271 271 271 271 272 271 271 271 271 270 269 268 271 272 273 273 274 275 276 276 276 276 276 277 279 279 279 280 280 280
271 271 271 271 271 271 271 271 271 271 271 271 271 271 271 270 270 270 270 270 270 269 269 268 268 268 267 267 267 268 269 269 268 269 270 271 271 271 271 271 271 270 270 269 268 268 271 272 272 273 274 275 274 274 275 275 276 277 278 278 278 279 279
270 270 270 270 270 271 271 271 271 270 270 270 270 270 270 270 270 270 270 270 270 270 270 269 268 268 268 268 267 267 267 267 267 268 268 269 269 270 270 269 269 269 269 269 268 269 268 271 271 271 273 273 273 273 272 273 275 277 277 277 277 277 278
269 270 270 270 270 270 270 270 270 270 270 270 270 269 268 269 270 270 270 270 270 270 270 270 270 269 269 268 268 267 267 267 267 267 268 269 269 269 269 268 269 268 268 268 268 268 269 269 271 272 270 273 274 273 273 272 273 273 274 275 275 274 276
269 269 269 269 269 269 269 269 269 270 269 269 269 268 268 269 269 269 270 270 270 270 270 270 270 270 270 269 269 268 268 268 267 268 268 269 269 268 268 267 268 268 268 268 268 268 268 269 269 270 271 272 273 272 273 274 272 269 270 271 273 274 274
269 269 269 269 269 269 269 269 269 269 268 268 268 268 268 268 268 269 269 269 270 270 270 270 270 270 270 270 269 269 269 269 268 268 267 268 268 267 267 267 267 267 267 267 267 267 268 268 268 269 270 270 270 270 269 271 271 269 270 271 271 272 274
269 269 269 269 269 269 268 268 268 266 265 267 268 269 269 269 269 269 269 269 269 269 270 270 270 270 270 269 269 269 269 269 268 268 268 268 267 267 267 266 266 266 267 267 266 266 266 266 266 268 268 268 269 270 270 269 269 268 269 269 269 271 273
269 269 269 268 267 267 267 267 267 265 268 269 270 270 270 270 269 269 269 268 268 268 269 270 270 270 270 269 269 269 269 268 268 268 268 268 268 268 267 265 265 265 266 265 265 266 266 266 266 267 268 268 268 269 268 268 268 268 267 267 266 266 270
268 267 267 267 266 266 266 266 265 266 268 269 270 270 270 270 270 270 269 269 269 269 269 269 269 269 269 268 268 268 268 267 267 267 267 267 267 267 267 267 266 265 264 265 264 264 265 265 265 266 267 267 267 267 267 267 267 266 266 266 266 266 266
267 266 266 265 265 265 266 265 264 265 267 268 269 270 270 270 270 269 269 269 268 268 267 268 267 267 267 267 267 267 266 266 265 265 265 265 265 265 266 266 266 267 266 266 264 264 264 265 265 265 266 267 267 267 265 265 266 266 266 266 266 266 268
265 265 265 264 264 264 265 264 263 264 266 268 268 269 270 269 268 268 267 267 267 266 266 266 266 266 266 266 266 266 265 265 264 264 264 264 264 264 264 264 265 265 265 265 265 264 263 265 266 265 266 266 267 265 264 265 264 266 265 265 265 267 268
265 264 263 263 263 263 263 263 263 264 265 267 268 268 269 268 267 267 266 266 266 265 265 265 265 265 265 265 265 265 265 264 263 263 263 263 263 263 264 264 264 264 264 264 264 265 264 265 265 265 266 266 267 266 266 266 266 266 266 266 267 267 268
265 264 263 263 262 262 262 263 263 264 265 266 267 268 267 267 266 265 265 265 265 265 265 265 265 265 264 264 264 264 264 264 263 263 262 262 262 263 263 264 265 265 266 265 265 264 264 264 265 266 266 266 266 267 267 267 267 267 267 265 264 264 266
265 265 264 263 262 261 262 263 263 262 263 264 266 266 266 266 265 265 264 264 264 265 265 264 264 264 264 264 264 264 263 263 263 262 261 261 261 262 262 263 264 265 266 267 268 269 269 270 270 271 271 271 271 269 267 266 264 264 266 264 262 263 265
264 264 263 262 262 262 261 263 262 261 262 263 265 265 264 264 265 264 264 264 264 264 264 264 263 263 263 263 263 263 263 263 263 262 262 261 261 261 261 262 264 264 264 265 265 265 266 266 266 266 266 267 268 267 266 264 262 264 265 262 263 262 263
263 263 263 263 262 261 260 261 262 261 261 262 264 264 264 264 264 263 263 264 263 264 264 264 264 262 262 263 263 263 264 264 264 262 262 262 261 261 261 262 264 263 263 264 264 264 265 264 264 265 265 265 264 263 264 264 263 264 264 262 262 262 262
263 262 263 263 262 261 261 260 261 261 260 262 263 264 264 264 263 262 262 263 263 263 263 264 264 264 262 262 262 263 263 263 264 263 262 262 261 261 260 264 264 264 264 263 263 263 264 264 264 264 265 265 264 263 263 264 264 264 264 263 262 262 262
261 261 261 262 262 262 261 261 260 261 260 261 261 262 262 262 262 262 262 262 262 263 263 263 264 264 263 262 262 262 262 263 264 264 263 263 262 262 263 264 263 263 264 263 263 263 263 264 265 265 265 265 265 265 265 265 265 265 264 263 262 261 261
260 262 262 263 262 261 261 261 259 260 260 260 261 262 262 261 261 262 261 260 261 262 262 263 263 264 263 262 261 261 262 263 263 263 263 263 264 264 264 264 264 264 263 263 263 263 263 264 264 264 265 265 265 265 264 265 265 264 264 264 264 263 261
260 260 262 262 264 263 262 261 261 259 259 260 260 260 261 261 261 261 261 261 260 261 262 263 263 263 261 261 261 261 262 262 262 263 263 263 264 264 264 264 263 263 263 262 263 263 263 263 263 263 263 264 264 264 264 264 264 264 264 263 263 263 263
262 262 262 262 264 264 264 262 262 260 259 259 259 260 260 260 260 260 260 261 261 261 262 262 262 262 261 261 261 261 261 262 262 262 263 263 263 263 263 263 262 262 262 262 262 262 262 262 263 263 263 263 264 264 263 263 262 262 261 261 262 262 261
263 262 262 262 262 264 264 263 262 261 260 258 258 259 259 259 259 259 260 259 260 261 261 261 261 260 260 261 261 261 261 261 262 262 262 262 262 262 262 262 262 262 262 261 261 261 261 262 263 263 263 264 262 261 261 260 261 261 261 261 261 260 260
262 262 262 262 262 263 263 263 262 261 261 259 258 258 258 259 259 259 259 259 260 260 260 260 260 260 260 260 260 260 261 261 261 261 261 261 261 261 261 262 262 262 261 261 261 261 261 262 263 263 264 261 260 260 261 261 261 261 261 262 261 261 261
261 261 262 262 262 263 262 262 262 262 262 261 261 261 260 259 259 258 258 258 259 259 260 260 259 260 260 260 260 260 260 260 260 260 260 261 261 261 262 262 262 262 261 261 261 261 262 262 263 264 262 261 261 261 261 262 261 260 260 261 261 260 260
262 262 262 262 263 263 262 262 263 263 262 262 262 261 261 261 260 260 260 260 260 261 260 260 259 259 260 260 260 260 260 260 261 260 260 261 261 261 261 261 261 261 261 261 261 261 261 261 262 261 261 261 261 261 261 261 260 260 260 260 260 258 258
263 262 263 262 262 261 261 261 261 262 262 260 260 259 259 260 260 261 261 260 260 259 259 260 259 259 259 260 259 259 259 260 260 260 260 259 260 261 261 260 260 259 259 260 260 259 260 260 260 260 261 260 260 260 260 261 260 260 259 259 259 258 258
261 262 262 261 262 262 260 261 263 261 259 259 259 259 259 260 260 260 260 260 260 259 258 258 258 259 259 259 259 259 259 260 260 260 260 260 259 259 260 260 260 260 259 260 260 260 260 259 260 260 260 260 259 260 260 260 259 259 259 258 258 258 258
259 259 259 259 259 260 260 259 259 259 259 259 259 259 259 259 260 260 259 260 259 258 258 258 257 258 259 259 259 259 259 259 259 259 259 259 260 260 260 259 259 260 260 259 259 259 259 259 259 259 259 259 259 259 260 260 259 259 258 258 258 258 258
258 258 259 258 258 258 259 260 259 259 259 259 259 259 259 259 259 259 259 259 259 257 256 257 257 257 258 259 258 259 259 259 259 259 259 259 259 259 260 259 259 260 260 259 259 259 258 259 259 259 259 259 259 258 258 259 258 258 258 258 258 258 258
258 258 259 259 259 259 259 259 259 259 259 259 259 259 259 259 259 258 258 258 257 256 256 257 257 257 258 258 258 258 259 259 259 259 259 259 259 259 259 260 260 259 259 258 258 259 258 259 258 258 258 258 258 257 257 258 258 258 258 258 257 257 257
258 258 258 258 258 258 258 259 259 259 259 259 259 258 258 258 258 258 258 257 256 256 256 257 257 257 258 258 258 258 258 258 258 259 259 259 259 259 259 259 260 259 258 258 258 258 258 258 258 258 258 258 258 258 258 257 257 258 257 257 257 257 258
261 259 258 258 258 258 258 258 258 258 258 258 258 257 257 257 257 256 257 258 258 257 257 257 257 257 257 258 258 258 258 258 258 258 258 258 258 258 259 259 259 258 258 258 258 258 258 258 257 257 257 257 257 257 257 257 257 257 257 257 257 257 257
260 260 258 257 257 257 257 257 257 257 257 257 257 257 257 255 255 256 256 257 257 257 257 257 257 257 257 258 257 258 258 258 257 257 258 258 258 258 258 258 258 258 258 257 258 257 257 257 257 257 257 257 257 256 256 257 257 257 257 257 257 257 257
Wind_Speed
6 5 5 6 5 6 5 5 5 4 4 5 5 4 4 4 4 4 3 3 4 4 4 3 3 3 4 4 4 3 3 3 2 2 2 2 2 3 3 4 5 8 10 7 5 6 7 8 9 9 8 10 9 9 9 10 9 10 8 8 8 8 11
5 5 5 6 6 6 6 5 5 4 4 4 4 4 3 3 3 3 3 3 3 3 3 3 3 3 3 3 3 3 3 3 3 3 2 3 2 3 3 3 3 6 7 9 5 6 6 7 8 9 7 8 10 10 9 11 10 9 8 8 8 8 8
5 5 6 6 5 5 5 5 4 4 4 4 4 4 3 3 3 2 2 3 2 2 2 2 2 2 2 2 2 3 2 3 3 3 3 3 3 3 4 4 4 5 8 8 8 6 8 7 6 8 9 8 8 9 9 10 10 9 8 8 8 8 7
5 5 5 5 5 5 5 5 4 4 4 4 4 3 3 2 2 2 1 1 1 1 1 1 1 1 2 3 2 3 3 3 3 4 4 4 4 4 5 5 4 5 7 8 10 7 6 7 8 8 8 8 8 9 8 8 9 9 9 9 8 8 8
4 5 5 4 4 4 4 4 4 4 4 3 3 3 2 1 1 1 0 0 0 0 0 1 1 1 1 2 3 3 2 3 4 5 4 4 5 4 5 4 5 6 6 8 10 9 7 7 8 8 8 7 7 8 8 8 8 8 8 9 9 9 8
4 4 5 5 4 4 4 4 3 3 3 3 3 2 2 1 1 0 1 1 2 2 2 2 2 2 2 2 3 4 4 4 4 5 5 5 5 5 5 6 7 7 7 8 9 9 9 6 7 7 7 6 6 7 9 8 8 6 7 8 8 8 7
5 4 4 4 4 4 3 3 2 2 2 2 2 2 1 2 2 2 2 2 3 3 3 3 3 3 3 4 4 4 4 4 5 5 5 5 6 6 6 7 7 7 8 8 10 10 8 8 7 6 8 7 6 7 8 9 9 9 6 6 8 9 8
4 3 3 3 3 3 2 1 1 1 2 2 2 2 2 2 3 3 4 4 4 4 4 4 5 5 5 5 5 5 5 5 4 4 5 5 5 6 7 7 7 7 8 9 9 9 8 7 7 7 7 7 6 6 6 5 7 10 9 8 8 8 9
3 3 3 3 2 2 1 0 1 2 2 2 2 1 2 3 4 4 5 5 5 5 6 6 6 6 6 6 7 8 7 6 6 5 6 6 5 6 7 7 7 7 8 9 9 9 8 7 8 7 7 7 6 6 7 7 8 9 9 9 9 9 8
3 2 2 2 1 1 0 1 1 3 3 3 3 4 4 4 4 4 5 6 6 6 6 7 7 7 8 9 9 10 10 9 9 9 8 8 7 8 7 7 7 7 7 8 9 9 9 9 8 8 7 8 8 8 8 8 8 9 9 9 10 9 7
2 2 2 1 0 0 0 0 1 4 5 5 5 5 5 5 5 5 5 6 6 6 6 6 6 6 7 8 9 9 11 10 10 11 12 14 14 12 10 9 9 9 8 9 10 9 9 10 12 10 9 9 9 8 10 9 8 9 9 9 10 10 8
2 1 1 1 1 0 0 1 2 4 5 5 6 5 4 4 4 4 4 4 4 5 5 6 6 6 5 5 6 6 7 9 9 10 11 11 12 13 14 14 11 10 10 9 10 10 10 10 10 11 8 8 8 9 9 9 9 10 10 10 10 9 9
2 1 1 0 0 1 1 1 2 5 6 6 5 6 5 4 4 4 4 4 5 5 6 6 7 7 6 6 7 7 7 8 8 8 9 10 10 12 13 14 16 17 14 11 12 12 13 11 10 11 10 8 8 7 10 10 10 9 9 9 10 10 10
1 1 1 0 1 1 2 2 3 6 6 6 6 6 5 4 4 5 5 6 6 6 7 7 7 6 6 6 6 6 7 7 7 8 9 8 8 9 10 13 16 17 18 16 13 13 14 13 10 12 11 10 10 10 10 10 11 10 10 10 11 11 12
1 1 1 1 1 2 3 3 4 6 7 7 7 6 5 4 3 4 5 5 6 6 6 7 7 7 8 7 7 6 6 7 8 8 7 8 8 9 9 10 10 10 9 9 10 12 13 13 12 13 13 11 9 12 12 11 12 11 11 11 12 12 12
1 2 1 1 1 2 3 3 4 6 6 6 6 6 4 3 4 5 5 6 6 7 6 6 7 7 7 8 8 8 10 9 8 9 9 9 10 10 10 11 11 13 13 12 11 11 11 11 12 14 13 13 12 11 11 11 8 8 9 11 11 11 9
2 2 2 2 2 3 4 4 4 4 5 5 5 5 3 4 4 5 6 7 6 7 7 7 7 7 7 8 8 9 10 11 11 9 10 10 11 10 9 10 8 11 14 16 18 20 20 21 21 21 22 21 19 9 3 3 6 8 8 10 12 11 10
2 3 3 3 3 4 5 5 3 3 4 5 5 4 4 4 4 5 6 7 7 6 7 8 9 10 9 9 9 10 11 12 10 10 11 11 13 15 12 11 8 7 8 13 16 18 19 18 19 19 20 20 17 12 6 5 7 8 8 10 12 12 10
3 3 2 3 5 6 6 5 4 3 4 5 5 4 4 4 4 5 6 6 7 7 7 7 8 12 11 11 11 13 13 13 11 10 10 10 11 12 13 11 9 9 9 9 9 9 9 8 11 10 9 7 5 5 6 6 6 6 8 9 9 10 10
2 3 4 4 5 5 5 4 3 2 3 5 6 6 4 4 4 6 6 6 7 7 7 7 7 8 13 15 14 13 14 14 13 11 11 10 10 11 13 10 9 9 9 10 10 10 10 11 10 8 7 7 6 5 5 6 6 7 7 8 9 8 9
3 5 6 5 4 4 4 3 3 3 5 6 6 7 6 5 6 6 6 6 7 7 7 6 6 6 6 9 11 12 14 15 16 15 12 11 11 12 12 12 11 11 13 11 11 11 10 9 9 8 8 8 9 8 8 7 8 8 8 8 8 9 9
5 5 4 3 4 4 4 4 6 5 5 7 8 8 8 6 6 5 6 8 8 7 7 7 6 6 5 6 9 13 14 16 16 16 12 12 15 16 17 13 11 11 9 9 9 8 9 8 8 8 8 7 7 7 7 8 8 8 8 8 9 9 9
4 3 3 3 3 3 4 4 4 7 6 7 8 9 9 10 9 10 8 9 9 8 8 7 7 7 8 10 13 14 15 16 17 15 12 16 16 17 17 15 11 10 10 9 9 9 9 9 8 8 8 7 7 6 5 6 7 7 7 7 8 9 9
2 3 3 4 3 2 3 4 4 5 8 7 9 10 11 11 12 12 9 9 9 8 8 8 9 8 10 13 15 17 17 16 16 12 15 16 16 16 15 10 10 10 9 9 9 9 9 9 8 8 8 8 7 6 5 5 4 4 4 6 7 7 8
2 3 3 3 4 4 2 3 3 4 6 9 9 11 12 12 12 12 12 10 10 9 10 12 14 17 18 17 17 18 18 16 17 18 18 18 16 15 9 9 9 10 9 10 10 9 9 10 9 8 9 8 4 4 4 6 6 6 7 7 6 7 8
3 3 3 4 4 4 4 3 4 5 5 6 8 9 11 12 12 12 13 13 11 14 17 18 20 21 20 18 17 12 10 9 9 11 13 14 14 10 10 9 9 10 11 11 10 10 10 10 9 9 7 1 2 5 6 8 7 7 7 6 7 8 9
4 4 4 4 4 5 5 5 5 4 4 4 4 4 5 7 8 11 12 10 10 11 12 12 12 11 13 13 17 18 17 16 15 13 11 10 9 9 9 9 9 10 11 11 11 10 10 9 9 8 7 7 8 8 8 7 6 7 7 7 8 8 10
4 4 4 5 5 5 5 6 5 4 3 3 3 3 4 5 6 7 7 7 7 8 9 10 11 13 11 10 10 9 8 9 9 9 9 9 9 9 8 10 10 9 9 10 10 10 9 9 8 8 8 8 7 8 7 6 6 7 8 8 7 7 9
5 5 5 5 6 6 6 6 6 5 0 2 4 6 7 7 7 7 8 9 11 11 11 10 10 9 9 9 9 8 8 8 8 8 9 10 10 9 9 8 8 9 10 10 9 10 10 10 9 9 8 8 8 8 7 6 6 7 7 7 7 8 10
7 6 4 6 7 6 8 8 6 2 2 9 12 14 16 16 16 15 13 14 16 13 12 11 10 10 9 9 9 8 8 9 9 8 8 8 9 9 9 10 9 9 8 8 9 9 9 9 8 9 8 8 8 8 8 7 7 8 7 7 8 8 9
15 15 14 10 9 8 12 13 14 14 14 15 15 16 17 17 16 15 15 15 12 10 10 10 10 10 9 10 9 9 10 9 9 9 9 9 8 8 9 9 9 9 8 7 8 8 8 8 8 9 8 8 8 8 8 7 6 6 6 7 8 8 9
16 17 17 19 17 13 10 11 13 13 14 15 15 16 17 17 17 16 15 15 15 12 12 10 10 10 10 10 10 10 9 9 9 9 9 8 9 9 8 8 9 8 8 8 8 8 8 8 8 8 8 8 7 6 7 7 7 7 7 7 7 8 9
16 17 17 17 18 20 18 16 12 12 14 16 17 17 17 17 18 16 16 15 12 11 12 10 10 11 10 10 11 10 10 10 10 9 9 9 9 9 9 8 8 8 8 8 9 8 8 8 8 8 7 7 7 7 8 8 7 8 7 7 7 8 8
18 16 16 16 17 18 18 18 18 17 16 16 17 17 16 15 13 15 15 14 11 10 11 11 10 11 11 11 11 10 10 10 10 9 9 9 9 9 9 9 8 8 9 9 8 9 9 9 8 7 7 8 7 7 7 7 7 7 7 7 8 8 8
6 10 13 11 11 14 17 17 16 16 16 16 16 15 15 15 11 10 9 9 11 12 12 12 12 11 11 11 11 10 10 10 10 9 9 9 9 9 8 8 8 9 8 8 8 8 8 8 8 8 8 8 8 8 8 8 8 8 8 8 8 8 8
7 7 7 11 14 16 15 15 15 15 16 17 17 15 12 10 10 10 10 10 10 11 11 11 11 11 11 11 11 10 10 10 10 10 9 9 9 9 9 8 8 8 8 8 8 8 9 8 8 8 7 7 8 9 9 9 8 8 8 8 8 8 7
Wind_Direction
92 90 87 86 82 84 83 78 74 67 72 72 70 67 64 53 51 58 59 64 61 52 39 35 37 35 26 13 355 360 345 356 346 328 310 310 295 287 280 284 277 274 281 282 279 290 300 308 315 309 308 308 310 315 314 312 309 308 304 302 303 303 298
87 87 87 82 80 80 80 80 77 72 69 73 77 75 65 54 53 58 56 58 52 43 41 29 33 21 18 3 4 334 329 330 333 320 318 316 307 302 302 298 287 277 280 288 298 290 298 304 304 292 300 306 309 309 310 309 306 302 300 304 304 304 306
88 89 89 87 86 89 86 86 84 76 78 79 77 74 68 62 53 54 57 55 51 45 37 27 35 6 8 341 344 318 310 311 304 310 304 298 306 293 296 295 285 289 289 291 293 303 298 294 297 295 300 301 296 298 299 298 297 300 303 300 299 300 302
89 90 93 93 91 87 89 85 81 81 75 74 71 70 68 59 56 57 59 58 48 51 39 19 9 1 4 333 329 322 317 308 323 318 305 298 291 285 281 284 280 275 281 291 293 293 292 296 296 290 290 289 288 289 293 292 292 291 294 297 298 302 300
90 94 92 94 94 93 85 80 79 80 80 74 68 62 64 64 71 70 42 284 273 221 265 308 308 311 283 312 317 305 304 340 340 305 300 296 295 293 291 288 285 280 276 282 282 287 282 282 280 282 284 286 291 295 293 291 286 290 293 296 299 295 294
98 97 98 94 93 88 86 81 78 79 76 71 58 50 34 14 343 321 265 253 257 251 257 255 266 270 275 271 291 304 308 304 301 300 291 290 288 289 291 288 284 279 273 271 274 278 289 279 281 287 282 287 289 296 301 299 294 293 295 298 300 302 305
101 94 97 95 86 80 72 74 75 74 72 64 57 42 358 319 301 299 290 278 275 271 263 266 265 264 269 280 273 271 281 295 297 287 287 285 285 281 280 284 283 282 280 276 281 283 274 280 280 281 291 295 293 282 282 296 307 304 306 307 303 304 304
102 96 86 80 79 74 73 69 78 68 49 27 15 346 326 302 297 295 288 283 279 275 273 272 275 265 259 260 254 260 268 277 285 296 294 291 290 290 287 282 282 281 277 282 281 283 287 287 289 289 282 284 282 285 292 306 316 310 311 309 304 301 302
94 99 102 92 88 88 76 91 42 39 18 355 327 288 283 284 279 286 288 290 291 286 282 281 279 269 258 247 238 238 246 257 263 279 287 289 291 287 282 278 279 280 282 286 286 290 289 289 290 291 300 303 304 308 310 315 310 298 300 303 302 297 295
85 92 91 96 98 95 55 32 38 28 341 292 291 297 286 279 277 268 275 286 291 290 281 272 270 273 249 247 244 236 236 252 257 254 262 276 285 285 284 283 285 286 287 289 289 290 297 294 289 295 301 301 301 304 306 305 299 298 302 302 292 287 279
111 100 95 109 126 204 131 62 43 350 307 303 292 291 287 281 282 277 272 273 277 283 285 279 275 272 262 251 250 248 247 257 264 271 276 277 274 272 275 283 285 283 287 288 286 288 287 286 289 289 293 294 297 301 302 303 301 298 302 299 299 297 297
114 105 119 154 162 240 327 357 15 312 306 303 299 293 285 278 274 277 279 277 278 280 282 284 281 277 275 268 265 270 274 272 270 274 279 280 279 276 270 266 269 279 283 280 284 285 280 283 283 292 294 295 297 297 303 300 298 291 291 290 287 288 289
117 148 154 133 323 301 282 283 332 314 307 305 306 304 296 276 281 284 289 296 291 286 286 287 286 283 280 280 278 274 277 283 288 282 274 275 277 276 270 266 262 260 263 276 278 276 277 271 283 286 283 286 292 308 299 295 288 285 285 285 287 286 291
174 182 201 248 287 273 296 297 326 318 313 313 309 306 303 295 299 295 292 290 287 285 282 283 286 287 285 284 286 284 282 285 289 292 293 285 280 275 269 265 261 261 262 263 265 269 271 274 275 275 280 284 286 286 282 283 282 285 285 284 282 291 293
214 246 258 291 320 313 303 295 312 306 301 297 305 310 314 304 298 286 284 281 279 276 277 278 275 277 281 285 286 286 291 293 294 293 287 282 271 264 262 259 257 252 254 254 253 257 261 268 266 267 272 275 272 265 256 258 270 275 277 282 284 280 274
242 258 266 275 274 272 281 285 273 278 282 299 311 315 304 288 280 277 276 276 270 272 273 272 273 277 278 279 278 278 279 281 288 287 280 277 273 269 266 261 254 251 248 250 253 253 257 262 262 261 262 259 251 252 261 263 260 257 265 278 282 283 286
241 252 252 249 246 254 271 261 248 266 283 295 298 304 294 284 274 265 262 262 264 265 262 259 258 259 268 272 270 271 275 280 283 276 272 272 275 273 273 270 266 258 255 257 265 272 272 272 271 271 270 272 275 294 327 296 277 262 270 279 284 288 289
235 238 236 238 249 241 251 256 241 255 283 283 287 290 278 266 261 263 263 267 259 259 264 258 247 250 256 258 262 267 268 274 274 269 268 271 276 280 278 278 277 272 264 259 265 273 276 277 279 282 284 285 284 283 262 267 263 284 290 280 280 284 288
232 237 252 237 239 235 240 255 254 247 270 279 280 274 258 255 261 261 261 266 269 258 256 256 244 239 243 250 258 262 267 272 275 275 275 276 279 279 278 279 286 281 280 281 280 274 272 263 258 257 258 261 245 233 246 254 262 277 276 275 278 283 290
247 262 255 239 226 226 229 247 266 253 260 268 267 261 258 266 257 261 262 261 267 274 268 258 256 247 230 238 251 261 269 275 276 275 276 275 270 272 274 282 281 276 278 281 280 278 276 276 277 269 261 258 256 241 215 238 254 266 265 273 274 277 276
253 241 240 235 235 240 240 231 255 255 241 253 254 256 250 248 251 258 267 272 273 268 269 265 259 260 239 230 251 264 268 269 272 274 274 268 262 261 270 279 279 277 275 273 273 272 272 268 268 264 261 258 256 253 248 247 248 242 247 255 265 273 277
239 243 253 256 236 235 240 230 223 253 242 239 245 251 251 257 257 260 269 273 267 264 264 262 266 265 261 256 261 269 270 270 269 270 271 266 267 270 272 272 273 275 273 270 267 270 271 271 270 270 271 268 265 259 254 250 246 241 238 248 254 263 271
237 258 267 273 251 222 213 222 227 224 238 242 245 249 252 252 257 260 259 260 266 265 267 269 268 267 267 266 269 272 271 270 271 271 265 266 268 269 272 274 271 267 266 263 262 264 267 271 272 275 276 276 273 274 269 255 256 255 250 254 258 261 263
222 249 267 276 275 245 213 203 224 211 215 236 242 250 252 254 254 255 253 259 262 268 271 272 268 269 277 281 279 276 273 271 268 265 266 268 270 273 275 272 266 260 257 257 257 257 262 265 268 270 271 272 276 283 297 300 293 270 246 242 253 250 248
250 264 281 282 280 283 261 231 219 236 210 213 238 246 251 255 256 257 256 257 260 260 265 270 274 278 279 279 277 275 276 273 267 262 262 264 267 270 269 264 259 257 254 254 250 253 259 264 263 267 272 276 290 294 276 255 256 231 237 246 243 251 255
251 258 258 269 273 276 280 273 263 242 218 198 227 237 243 246 250 253 252 251 261 267 270 271 272 273 272 271 268 267 261 259 262 265 268 270 270 265 259 255 253 251 250 250 253 255 258 260 265 267 276 61 237 273 270 274 268 270 264 253 256 262 259
250 255 253 260 269 272 272 269 261 250 226 209 222 232 226 228 237 237 242 254 260 259 260 259 258 257 262 266 268 267 267 267 269 268 262 256 250 246 245 245 243 245 247 251 256 260 261 261 265 271 269 266 270 270 270 263 255 260 265 266 268 268 273
243 247 257 262 265 265 264 262 259 256 249 259 257 269 274 273 280 278 268 258 260 266 272 277 275 268 261 261 266 262 253 252 250 249 248 249 251 249 249 251 260 270 262 258 259 263 266 264 263 262 262 266 263 263 263 252 245 252 267 268 266 265 268
254 252 252 252 256 260 265 261 262 267 299 273 269 273 283 286 277 276 277 277 281 285 284 280 275 272 269 262 257 255 258 264 260 254 252 245 251 256 252 248 240 239 245 247 246 248 250 253 256 257 256 256 260 261 258 252 251 253 259 267 256 258 271
246 251 255 256 252 237 247 260 268 342 301 277 273 271 269 267 269 272 275 280 283 284 284 279 274 267 263 262 260 259 265 276 274 266 260 258 248 247 252 249 243 243 247 246 242 244 246 248 251 254 253 251 254 262 259 253 250 259 255 252 255 259 267
243 250 250 250 266 258 243 252 262 263 264 268 268 269 271 273 274 276 277 280 286 283 273 273 270 268 264 262 261 261 268 270 265 263 262 260 260 254 246 246 247 248 244 241 241 241 243 246 246 249 250 250 253 254 259 256 243 246 247 245 252 258 266
240 242 245 245 245 254 271 256 248 248 255 258 262 269 275 278 279 280 281 280 280 276 269 262 263 264 263 264 262 259 263 263 263 261 257 256 258 259 252 244 246 248 243 246 246 243 243 241 243 245 247 247 248 249 253 250 249 244 244 248 250 252 258
237 240 243 244 245 245 250 260 265 263 265 269 270 274 278 283 284 281 277 276 269 258 263 259 258 259 261 261 259 259 260 263 260 257 256 255 253 257 262 254 249 248 244 249 247 246 244 242 241 244 244 243 242 239 247 246 246 251 247 245 250 252 251
226 232 240 244 248 254 258 260 262 264 265 267 270 274 279 282 282 277 267 257 258 258 259 259 257 256 257 259 258 259 259 259 258 256 254 255 253 256 261 257 254 244 243 246 242 238 241 239 241 240 239 241 236 235 238 240 241 245 245 245 247 256 259
247 219 213 234 249 250 250 253 254 256 260 263 265 268 271 280 282 274 264 245 238 243 248 251 250 251 253 255 257 258 259 260 259 258 256 256 257 256 254 253 247 244 244 240 236 235 234 233 234 233 234 237 237 234 231 237 239 243 244 247 252 253 255
264 264 244 234 249 254 256 254 254 256 258 260 261 264 267 272 267 265 258 252 248 244 246 248 250 251 254 256 258 259 259 258 259 257 256 255 255 254 253 250 248 245 242 234 236 237 234 233 233 230 231 232 232 233 235 241 239 244 244 243 246 251 254